^^
Paulen-Weather Station Historical Data
Daily Summary for January 22, 2022 Units:  Metric    English   Both
Daily Weekly Monthly Yearly Custom
  High: Low: Average:
Temperature: 6 °C 2 °C 3.7 °C
Dew Point: 4 °C 1 °C 2.3 °C
Humidity: 95% 84% 90%
Wind Speed: 6km/h 0km/h 1.8km/h
Wind Gust: 6km/h - -
Wind- - ESE
Pressure: 1023.54 hPa 1023.1 hPa -
Precipitation: 0 mm    
Historical Graphs
 
 
Tabular Data for January 22, 2022
Time Temperature Dew Point Pressure Wind Wind Speed Wind Gust Humidity Rainfall Rate (Hourly) solar
00:04 6 °C 4 °C 1023.23 hPa N 1 km/h   85% 0 mm 0 W/m2
00:09 6 °C 4 °C 1023.3 hPa Calm     86% 0 mm 0 W/m2
00:14 6 °C 4 °C 1023.3 hPa Calm     86% 0 mm 0 W/m2
00:19 6 °C 4 °C 1023.27 hPa Calm     86% 0 mm 0 W/m2
00:24 6 °C 4 °C 1023.27 hPa Calm     86% 0 mm 0 W/m2
00:29 6 °C 4 °C 1023.3 hPa Calm     86% 0 mm 0 W/m2
00:34 6 °C 4 °C 1023.2 hPa Calm     86% 0 mm 0 W/m2
00:39 6 °C 4 °C 1023.23 hPa Calm     86% 0 mm 0 W/m2
00:44 6 °C 4 °C 1023.23 hPa N 1 km/h 1 km/h 86% 0 mm 0 W/m2
00:49 6 °C 4 °C 1023.27 hPa N 3 km/h 3 km/h 85% 0 mm 0 W/m2
00:54 6 °C 4 °C 1023.23 hPa NNW 4 km/h 3 km/h 85% 0 mm 0 W/m2
00:59 6 °C 4 °C 1023.23 hPa NNW 3 km/h 3 km/h 85% 0 mm 0 W/m2
01:04 6 °C 4 °C 1023.23 hPa NNW 1 km/h 1 km/h 84% 0 mm 0 W/m2
01:09 6 °C 4 °C 1023.23 hPa NNW 1 km/h 1 km/h 84% 0 mm 0 W/m2
01:14 6 °C 4 °C 1023.23 hPa NNW 2 km/h 3 km/h 84% 0 mm 0 W/m2
01:19 6 °C 4 °C 1023.16 hPa WNW 5 km/h 3 km/h 84% 0 mm 0 W/m2
01:24 6 °C 4 °C 1023.27 hPa WNW 2 km/h 2 km/h 84% 0 mm 0 W/m2
01:29 6 °C 4 °C 1023.27 hPa WNW 3 km/h 3 km/h 84% 0 mm 0 W/m2
01:34 6 °C 3 °C 1023.3 hPa NNW 4 km/h 5 km/h 84% 0 mm 0 W/m2
01:39 5 °C 3 °C 1023.33 hPa NNW 4 km/h 4 km/h 86% 0 mm 0 W/m2
01:44 5 °C 3 °C 1023.3 hPa Calm     87% 0 mm 0 W/m2
01:49 5 °C 3 °C 1023.37 hPa Calm     86% 0 mm 0 W/m2
01:54 4 °C 2 °C 1023.47 hPa Calm     87% 0 mm 0 W/m2
01:59 4 °C 2 °C 1023.47 hPa Calm     88% 0 mm 0 W/m2
02:04 4 °C 2 °C 1023.37 hPa Calm     88% 0 mm 0 W/m2
02:09 4 °C 2 °C 1023.37 hPa Calm     89% 0 mm 0 W/m2
02:14 3 °C 2 °C 1023.37 hPa NNW 3 km/h 3 km/h 90% 0 mm 0 W/m2
02:19 3 °C 2 °C 1023.33 hPa N 5 km/h 4 km/h 90% 0 mm 0 W/m2
02:24 3 °C 1 °C 1023.33 hPa N 6 km/h 5 km/h 90% 0 mm 0 W/m2
02:29 3 °C 2 °C 1023.2 hPa N 6 km/h 6 km/h 91% 0 mm 0 W/m2
02:34 3 °C 2 °C 1023.13 hPa NNE 6 km/h 5 km/h 92% 0 mm 0 W/m2
02:39 3 °C 1 °C 1023.1 hPa NNE 6 km/h 5 km/h 92% 0 mm 0 W/m2
02:44 3 °C 1 °C 1023.1 hPa NNE 6 km/h 5 km/h 92% 0 mm 0 W/m2
02:49 3 °C 2 °C 1023.16 hPa NNE 5 km/h 4 km/h 93% 0 mm 0 W/m2
02:54 2 °C 1 °C 1023.27 hPa NNE 1 km/h 2 km/h 93% 0 mm 0 W/m2
02:59 2 °C 1 °C 1023.3 hPa Calm     92% 0 mm 0 W/m2
03:04 2 °C 1 °C 1023.2 hPa Calm     93% 0 mm 0 W/m2
03:09 3 °C 2 °C 1023.13 hPa NNE 3 km/h 3 km/h 93% 0 mm 0 W/m2
03:14 3 °C 2 °C 1023.13 hPa NNE 5 km/h 4 km/h 93% 0 mm 0 W/m2
03:19 3 °C 2 °C 1023.16 hPa NNE 4 km/h 4 km/h 93% 0 mm 0 W/m2
03:24 3 °C 2 °C 1023.2 hPa NNE 2 km/h 2 km/h 94% 0 mm 0 W/m2
03:29 3 °C 2 °C 1023.23 hPa Calm     94% 0 mm 0 W/m2
03:34 3 °C 2 °C 1023.27 hPa Calm     93% 0 mm 0 W/m2
03:39 2 °C 2 °C 1023.23 hPa Calm   1 km/h 93% 0 mm 0 W/m2
03:44 2 °C 2 °C 1023.3 hPa NNE 3 km/h 2 km/h 94% 0 mm 0 W/m2
03:49 3 °C 2 °C 1023.37 hPa NNE 4 km/h 3 km/h 94% 0 mm 0 W/m2
03:54 2 °C 2 °C 1023.4 hPa NNE 3 km/h 2 km/h 94% 0 mm 0 W/m2
03:59 2 °C 1 °C 1023.43 hPa NNE 1 km/h   94% 0 mm 0 W/m2
04:04 2 °C 1 °C 1023.47 hPa NNE 2 km/h 1 km/h 94% 0 mm 0 W/m2
04:09 2 °C 1 °C 1023.54 hPa NNE 3 km/h 2 km/h 94% 0 mm 0 W/m2
04:14 2 °C 1 °C 1023.54 hPa NNE 2 km/h 1 km/h 94% 0 mm 0 W/m2
04:19 2 °C 1 °C 1023.5 hPa Calm     94% 0 mm 0 W/m2
04:24 2 °C 1 °C 1023.54 hPa NNE 1 km/h 2 km/h 94% 0 mm 0 W/m2
04:29 2 °C 1 °C 1023.5 hPa NNE 1 km/h 1 km/h 94% 0 mm 0 W/m2
04:34 2 °C 2 °C 1023.47 hPa NNE 1 km/h   94% 0 mm 0 W/m2
04:39 2 °C 2 °C 1023.33 hPa NNE 3 km/h 2 km/h 95% 0 mm 0 W/m2
04:44 2 °C 2 °C 1023.27 hPa NNE 2 km/h 1 km/h 95% 0 mm 0 W/m2
04:49 3 °C 2 °C 1023.2 hPa NNE 2 km/h   95% 0 mm 0 W/m2
04:54 3 °C 2 °C 1023.2 hPa Calm     95% 0 mm 0 W/m2
04:59 3 °C 2 °C 1023.2 hPa Calm     94% 0 mm 0 W/m2
05:04 2 °C 2 °C 1023.16 hPa Calm     94% 0 mm 0 W/m2
05:09 2 °C 1 °C 1023.16 hPa Calm     94% 0 mm 0 W/m2
05:14 2 °C 1 °C 1023.2 hPa Calm     94% 0 mm 0 W/m2
05:19 2 °C 1 °C 1023.2 hPa Calm     94% 0 mm 0 W/m2
05:24 2 °C 1 °C 1023.2 hPa NNE 1 km/h 1 km/h 94% 0 mm 0 W/m2
05:29 2 °C 1 °C 1023.2 hPa NNE 2 km/h 1 km/h 94% 0 mm 0 W/m2
05:34 2 °C 1 °C 1023.23 hPa Calm     94% 0 mm 0 W/m2
Compliments of Weather Underground - 2 mb